Погода в Арбузовой-Щилинке

Россия / Псковская область     57˚51′14″N   29˚41′04″E
темп.,
°C
ветер,
м/с
пор.,
м/с
влажн.,
%
обл.,
%
осадки,
мм/ч
давл.,
гПа
погр.,
м
17 января, вс
вс1700:00−17˚ссз269696 0.0 1018214
03:00−18˚ссз229779 0.0 101875
06:00−18˚ссз129850 0.0 101824
09:00−18˚зсз129861 0.0 101820
12:00−14˚з239376 0.0 1019137
15:00−12˚з249171 0.0 1019217
18:00−14˚з259771 0.0 1019107
21:00−12˚з369579 0.1 1019222
18 января, пн
пн1800:00−11˚з369599 0.3 1019240
03:00−11˚з269593 0.5 1018220
06:00−10˚з259592 0.1 1017211
09:00−9˚з259696 0.3 1018153
12:00−8˚з249394 0.3 1018211
15:00−7˚з249387 0.3 1018252
18:00−9˚з249788 0.1 1018113
21:00−11˚з229780 0.1 101821
19 января, вт
вт1900:00−11˚зюз229782 0.0 101828
03:00−12˚зюз229578 0.1 101825
06:00−13˚юз129319 0.0 101723
09:00−14˚юз229210 0.0 101825
12:00−11˚ююз23890 0.0 1018162
15:00−9˚ююз249010 0.0 1017267
18:00−13˚ююз229561 0.0 101724
21:00−13˚ю229435 0.0 101724
20 января, ср
ср2000:00−13˚ю22950 0.0 101737
03:00−14˚ююв23930 0.0 101769
06:00−14˚ююв37920 0.0 1016167
09:00−14˚ююв39880 0.0 1016247
12:00−11˚ю4107933 0.0 1015359
15:00−9˚ююв498167 0.0 1014415
18:00−9˚ююв51287100 0.0 1012397
21:00−8˚ююв61388100 0.0 1010514
21 января, чт
чт2100:00−6˚ю51293100 0.9 1008625
03:00−6˚ю51194100 2.5 1006512
06:00−3˚ю41093100 0.4 1004401
09:00−1˚ю41193100 0.7 1003419
12:00+1˚ююз31195100 0.4 1003463
15:00+2˚ююз31097100 1.1 1002426
18:00+1˚ююз31095100 0.4 1003416
21:00ююз2894100 0.4 1003301